USA 76

导读 | 豆包AI

USA 76是美国于1991年11月8日08:00发射的军事侦察卫星,隶属于美国海军海洋监视系统(NOSS),该系统主要用于监视海洋上的舰船活动,通过电子侦察手段收集信号情报。此次发射使用泰坦四号运载火箭从范登堡空军基地SLC-4E发射工位升空,进入倾角约63.4度、高度约1052公里×1164公里的近地轨道,是冷战期间美国构建天域海洋监视网络的重要组成部分,至今该卫星已在轨运行超过34年。

基本信息
目录编号:
21808
目录名称:
USA 76
国际标识:
1991-076D
轨道中心:
EARTH
卫星名称:
USA 76
卫星全名:
--
卫星状态:
在轨 (已飞行12593 天)
发射日期:
1991-11-08 UTC
国别 :
美国 (US)
星等 :
--
轨道信息
数据来源 国际轨道数据 AOE轨道数据
星历时间 2026-04-30T22:03:48+0800
11小时前
查看轨道信息
2026-04-30T11:00:00+0800
22小时前
查看轨道信息
半长轴 7416.415km 7416.37km
偏心率 0.0885255 0.0884865
轨道倾角 63.299° 63.300°
近地点辐角 73.618° 73.672°
升交点赤经 280.672° 281.915°
平近点角 296.023° 200.271°
近地点 381.736km 381.984km
远地点 1694.82km 1694.482km
周期 105.938分钟 105.937分钟
每日圈数 13.59289 13.593014
详细信息
使用方式:
暂无
2D轨道图
3D轨道图
轨道高度分析图
轨道倾角分析图
轨道综合分析图
查看轨道综合分析图